Find Insat 3DR

NORAD ID: 41752 Int'l Des: 2016-054 Owner: ISRO Country: IN operational
HEOCIRCULARGSO

リアルタイム位置

3D地球を読み込み中...

Insat 3DRについて

説明を読み込み中...

次回通過

Passes for default location (London). Set your location on the main map for personalized predictions.

高度履歴

Loading altitude history...

軌道要素

1 41752U 16054A 26105.81341315 -.00000071 00000-0 00000+0 0 9993
2 41752 0.0861 84.9329 0011867 196.4163 289.4688 1.00271224 35196
Epoch: Apr 15, 2026 • Age: 6 hours

現在のステータス

高度 35740.8 km
速度 3.08 km/s
衛星直下点 -0.02°S, 74.07°E
打ち上げ日 Sep 8, 2016
運用期間 9.6 years
タイプ other

技術仕様

分類 Payload
質量 2211.00 kg
乾燥質量 956.00 kg
総質量 2211.00 kg
長さ 2.40 m
直径 1.60 m
スパン 9.50 m
形状 Box+2 pan
製造者 ISRO
バスタイプ I2K
フェーズステータス In Orbit
所有者/国 ISRO/IN

Most Searched